www.pogodaiklimat.ru

Погода и климат >> Архив погоды >> Беларусь >> Ганцевичи


ПОГОДА в Ганцевичах

  • Прогноз погоды в Ганцевичах
  • Монитор погоды в Ганцевичах
  • Климат города

АРХИВ ПОГОДЫ в Ганцевичах

Время (UTC), дата Ветер
(напр.,м/с)
 
Видим.   Явления Облачность Т
(С)
Тd
(С)
f
(%)
Тe
(С)
Тes
(С)
Комфортность P
(гПа)
Po
(гПа)
Тmin
(С)
Tmax
(С)
R
(мм)
R24
(мм)
S
(см)
03 16.01 ЮВ 2 10 км н/о -12.5 -14.1 88 -17 -17 1024.0 1003.1 -13.1
06 16.01 ЮВ 4 6000 м дымка ясно -12.8 -14.6 86 -20 -20 1021.0 1000.1 -13.1
09 16.01 ЮВ 3 10 км ясно -9.6 -12.7 78 -15 -14 1019.0 998.4
12 16.01 ЮВ 5 20 км ясно -5.7 -14.7 49 -12 -12 1013.8 993.4
15 16.01 ЮВ 4
{10}
10 км ясно -7.8 -14.2 60 -14 -14 1010.0 989.8
18 16.01 ЮВ 5
{11}
10 км ясно -9.6 -12.8 77 -17 -17 1007.9 987.3 -5.4
21 16.01 ЮВ 4
{12}
10 км н/о -8.2 -10.9 81 -15 -15 1004.0 983.8
00 17.01 ЮВ 6
{10}
10 км н/о -7.4 -9.3 86 -16 -16 1001.0 981.0
03 17.01 ЮВ 5
{10}
2200 м н/о -6.8 -8.2 90 -14 -14 997.0 977.1 -9.9
06 17.01 ЮВ 4 3400 м слабый снег 10/10 330 м
[Frnb Ns]
-6.2 -7.4 91 -13 -13 995.1 975.0 -9.9 2 2
09 17.01 ЮВ 4 3200 м снег 10/10 270 м
[Frnb Ns]
-5.1 -6.4 91 -12 -12 993.9 973.9
12 17.01 Ю 2 4500 м слабый снег 10/10 270 м
[Frnb Ns]
-3.3 -4.3 93 -8 -8 992.5 972.7
15 17.01 ЮВ 3 3500 м слабый снег 10/10 270 м
[Frnb Ns]
-0.9 -1.8 94 -6 -6 991.8 972.2
18 17.01 З 4 3200 м слабый снег 10/10 300 м
[Frnb Ns]
-1.9 -3.0 92 -8 -8 993.0 973.3 -0.2 3 7
21 17.01 ЮЗ 3
{10}
7000 м н/о -1.8 -2.5 95 -7 -7 995.0 975.5
00 18.01 З 2
{11}
10 км н/о -0.2 -1.6 90 -4 -4 997.0 977.6
03 18.01 ЮЗ 2 10 км н/о -0.7 -1.8 92 -5 -5 1000.0 980.5 -2.3
06 18.01 ЮЗ 2 4000 м в посл. час крупа 9/9 400 м
[Cb calv]
-1.2 -2.1 94 -5 -5 1002.0 982.2 -2.3 0.5 7
09 18.01 ЮЗ 2 6000 м дымка 8/3 600 м
[Sc Ac trans]
-0.7 -2.1 90 -5 -4 1003.7 983.9
12 18.01 ЮЗ 1 10 км 9/9 540 м
[Sc]
+0.3 -2.2 83 -2 -1 1004.7 984.9
15 18.01 ЮЗ 1 6000 м дымка 9/9 570 м
[Sc]
-0.4 -2.0 89 -3 -3 1004.4 984.6
18 18.01 Ю 1 3500 м дымка ясно -2.3 -2.8 96 -5 -5 1004.0 984.1 +0.8 7
21 18.01 ЮВ 2 7000 м н/о -3.8 -4.2 97 -8 -8 1002.0 982.2
00 19.01 ЮВ 5 10 км н/о -4.1 -5.1 93 -11 -11 1000.0 980.2
03 19.01 ЮВ 5
{10}
9000 м н/о -3.2 -4.2 93 -10 -10 997.0 977.4 -6.1
06 19.01 ЮВ 4
{10}
3200 м снег 10/10 240 м
[Frnb Ns]
-2.6 -3.4 94 -9 -9 995.2 975.4 -6.1 1 8
09 19.01 ЮВ 3 4000 м слабый снег 10/10 360 м
[Frnb Ns]
-2.0 -2.7 95 -7 -7 995.9 976.1
12 19.01 ЮВ 2 4000 м слабый снег 10/10 240 м
[Frnb Ns]
0.0 -0.8 94 -4 -4 996.0 976.4
15 19.01 Ю 1 3500 м слабый снег 10/10 210 м
[Frnb Ns]
+0.2 -0.0 99 -2 -2 997.3 977.7
18 19.01 штиль 0 2300 м слабый снег 10/10 210 м
[Frnb Ns]
+0.2 +0.1 99 -1 -1 999.0 979.3 +0.3 2 11
21 19.01 З 3 7000 м н/о -0.6 -1.4 94 -6 -6 1002.0 982.5
00 20.01 З 4 8000 м н/о -1.9 -2.9 93 -8 -8 1005.0 985.3
03 20.01 З 4 10 км н/о -3.2 -4.5 91 -9 -9 1007.0 987.2 -3.2
06 20.01 З 3 5000 м дымка 9/9 300 м
[Sc]
-3.3 -4.6 91 -9 -9 1008.0 987.9 -3.3 0.6 12
09 20.01 З 4 6000 м слабый снег 10/10 270 м
[Frnb Ns]
-2.6 -4.3 88 -9 -9 1009.3 989.2
12 20.01 З 3 10 км {снег} 9/9 700 м
[Sc]
-2.4 -4.8 84 -7 -7 1009.6 989.5
15 20.01 ЮЗ 2 6000 м дымка 9/9 570 м
[Sc]
-2.7 -4.8 85 -7 -7 1009.8 989.7
18 20.01 З 1 6000 м дымка ясно -4.8 -6.2 90 -7 -7 1009.7 989.5 -2.1 0.0 12
21 20.01 штиль 0 3100 м н/о -11.1 -12.1 92 -11 -11 1011.0 990.5
00 21.01 штиль 0 2700 м н/о -12.3 -13.3 92 -12 -12 1010.0 989.4
03 21.01 штиль 0 10 км н/о -11.0 -12.0 92 -11 -11 1011.0 990.5 -16.0
06 21.01 штиль 0 4000 м слабый снег [диам. изморози 5 мм] 10/0 2000 м
[As op]
-9.3 -10.3 92 -10 -10 1011.3 990.7 -16.0 0.2 11
09 21.01 штиль 0 4000 м слабый снег 10/0 2000 м
[As trans]
-4.9 -5.7 94 -6 -5 1012.3 992.0
12 21.01 штиль 0 6000 м слабый снег 10/0 2000 м
[As op]
-3.6 -5.0 90 -5 -4 1013.1 992.9
15 21.01 штиль 0 6000 м в посл. час снег 9/0 2000 м
[Ac trans]
-4.0 -4.9 93 -5 -5 1015.0 994.7
18 21.01 штиль 0 4000 м дымка {снег} 9/0 2000 м
[Ac trans]
-6.3 -6.9 95 -7 -7 1016.7 996.2 -3.0 0.6 12
21 21.01 штиль 0 200 м н/о -11.7 -12.5 94 -12 -12 1019.0 998.3
00 22.01 штиль 0 8000 м н/о -12.3 -13.6 90 -12 -12 1020.0 999.2
03 22.01 штиль 0 10 км н/о -13.7 -14.8 91 -14 -14 1021.0 1000.1 -14.9
06 22.01 штиль 0 5000 м дымка 10 баллов -10.8 -11.8 92 -11 -11 1021.0 1000.3 -16.0 12
09 22.01 штиль 0 4000 м дымка ясно -4.9 -5.6 95 -6 -4 1021.0 1000.8
12 22.01 Ю 1 10 км 10 баллов -5.2 -7.5 84 -8 -8 1022.0 1001.7
15 22.01 штиль 0 6000 м дымка 10 баллов -6.0 -7.5 89 -7 -7 1023.0 1002.6
18 22.01 ЮВ 1 4000 м дымка 10 баллов -7.7 -8.4 95 -10 -10 1023.0 1002.5 -2.9 12
21 22.01 штиль 0 600 м н/о -8.6 -9.3 95 -9 -9 1024.0 1003.4
00 23.01 штиль 0 1800 м н/о -9.1 -9.9 94 -10 -10 1025.0 1004.4

 

Местоположение метеостанции Ганцевичи (Брестская область, Беларусь): широта 52.75 долгота 26.44 высота над уровнем моря 157 м.

В архиве по умолчанию представлена погода в Ганцевичах за последнюю неделю. Архивные данные за месяц целиком и за предыдущие месяцы, начиная с января 2011 года, Вы можете получить, выбрав интересующий диапазон дат из раскрывающегося списка и нажав кнопку "Ввод!".

Внимание! Время в таблицах - всемирное. Для получения местного времени необходимо прибавить поправку, которая в Ганцевичах равна 3 ч.

Смотрите также архив погоды в соседних городах и на ближайших метеорологических станциях:

Погода в Барановичах (Брестская область, Беларусь) (53 км)
Погода в Полесской (Брестская область, Беларусь) (53 км)
Погода в Ивацевичах (Брестская область, Беларусь) (73 км)
Погода в Пинске (Брестская область, Беларусь) (75 км)
Погода в Слуцке (Минская область, Беларусь) (81 км)
Погода в Столбцах (Минская область, Беларусь) (83 км)
Погода в Новогрудке (Гродненская область, Беларусь) (102 км)
Погода в Житковичах (Гомельская область, Беларусь) (113 км)
Погода в Пружанах (Брестская область, Беларусь) (133 км)
Погода в Марьиной Горке (Минская область, Беларусь) (137 км)

Пояснения к столбцам:

Ветер - указаны скорость ветра в м/с - средняя за 10 мин, порывы в срок и между сроками (в фигурных скобках) и направление, откуда дует ветер: С - северный, СВ - северо-восточный, В - восточный, ЮВ - юго-восточный, Ю - южный, ЮЗ - юго-западный, З - западный, СЗ - северо-западный.
Видимость - горизонтальная дальность видимости в метрах или километрах. При видимости от 1 до 10 км при отсутствии осадков обычно наблюдается дымка, при ухудшении видимости до 1 км и менее - туман. В сухую погоду видимость может ухудшаться дымом, пылью или мглою.
Явления - указаны атмосферные явления, наблюдавшиеся в срок или в последний час перед сроком; фигурными скобками обозначены явления, наблюдавшиеся между сроками (за 1-3 часа до срока); квадратными скобками обозначены град или гололедные отложения с указанием их диаметра в мм.
Облачность - указаны через наклонную черту общая и нижняя облачность в баллах и высота нижней границы облаков в метрах; квадратными скобками обозначены формы облаков: Ci - перистые, Cs - перисто-слоистые, Cc - перисто-кучевые, Ac - высококучевые, As - высокослоистые, Sc - слоисто-кучевые, Ns - слоисто-дождевые, Cu - кучевые, Cb - кучево-дождевые. Подробнее классификацию облаков см. в Атласе облаков (PDF).
T - Температура воздуха - температура, измеренная на высоте 2 м над землей.
Td - Температура точки росы - температура, при понижении до которой содержащийся в воздухе водяной пар достигнет насыщения.
f - Относительная влажность воздуха - влажноcть воздуха, измеренная на высоте 2 м над землей.
Te - Эффективная температура - температура, которую ощущает одетый по сезону человек в тени. Характеристика душности погоды. При расчете учитывается влияние влажности воздуха и скорости ветра на теплоощущения человека.
Tes - Эффективная температура на солнце - температура, которую ощущает человек, с поправкой на солнечный нагрев. Характеристика знойности погоды. Зависит от высоты солнца над горизонтом, облачности и скорости ветра. Ночью, в пасмурную погоду, а также при ветре 12 м/с и более поправка равна нулю.
P - Атмосферное давление - приведенное к уровню моря атмосферное давление.
Po - Атмосферное давление - измеренное на уровне метеостанции атмосферное давление.
Tmin - Минимальная температура - минимум температуры воздуха на высоте 2 м над землей.
Tmax - Максимальная температура - максимум температуры воздуха на высоте 2 м над землей.
R - Количество осадков - Количество выпавших осадков за период времени, мм. При наведении курсора мыши на число - период времени, за который выпало указанное количество осадков.
R24 - Количество осадков - Количество выпавших осадков за 24 часа, мм.
S - Снежный покров - Высота снежного покрова, см. При наведении курсора мыши на число - состояние снежного покрова и степень покрытия местности в баллах.